KAZEOSAT 1

Last updated on Thu Jul 03 2025 00:02:30 GMT+0000 (Coordinated Universal Time)

1 39731U 14024A 25183.52372625 .00000132 00000+0 53182-4 0 9993 2 39731 98.3592 258.9354 0001277 86.4890 273.6446 14.42031578588164
UTC large
Height (km)
Speed (km/s)
/
Latitude / Longitude
Inclination (degrees)
Orbital Period (minutes)
Azimuth
Elevation
Range (km)
Doppler Factor

Next 0 passes for location: London (51.5072 / 0.1276)

Sorry there are no passes over London.